Regional Weather Roundup
Issued by NWS Portland, ME

Home | Current Version | Previous Version | Text Only | Print | Product List | Glossary On
Versions: 1 2 3 4 5 6 7 8 9 10 11 12 13 14 15 16 17 18 19 20 21 22 23 24 25 26 27 28 29 30 31 32 33 34 35 36 37 38 39 40 41 42 43 44 45 46 47 48 49 50
000
ASUS41 KGYX 070610
RWRGYX
WEATHER ROUNDUP FOR MAINE AND NEW HAMPSHIRE
NATIONAL WEATHER SERVICE GRAY ME
100 AM EST SUN FEB 07 2016

MEZ002-005-006-010-012-015-018-020-021-024-026-027-029-070700-
MAINE

CITY           SKY/WX    TMP DP  RH WIND       PRES   REMARKS
PORTLAND       CLEAR     28  23  81 SW7       30.13F
6HR MIN TEMP:  28; 6HR MAX TEMP:  32;

SANFORD        CLEAR     18  12  79 S6        30.15F
BAR HARBOR     CLEAR     34  28  80 SW5       30.10F
WISCASSET      CLEAR     30  24  78 VRB3      30.14F
6HR MIN TEMP:  30; 6HR MAX TEMP:  34;

ROCKLAND       CLEAR     32  26  78 SW6       30.12F
FRYEBURG       CLEAR     24  18  77 S3        30.08F
6HR MIN TEMP:  23; 6HR MAX TEMP:  32;

LEWISTONAUBURN CLEAR     28  21  74 SW5       30.09F
AUGUSTA        PTCLDY    25  21  85 S5        30.09F
6HR MIN TEMP:  25; 6HR MAX TEMP:  30;

WATERVILLE     CLEAR     22  21  96 S3        30.05F
BANGOR         PTCLDY    26  22  84 S7        30.08F
6HR MIN TEMP:  26; 6HR MAX TEMP:  31;

GREENVILLE       N/A     28  21  75 S6        29.94F
6HR MIN TEMP:  26; 6HR MAX TEMP:  28;

MILLINOCKET    CLOUDY    28  22  78 VRB3      30.02F
6HR MIN TEMP:  25; 6HR MAX TEMP:  30;

HOULTON        CLOUDY    26  22  84 S9        29.99F
6HR MIN TEMP:  24; 6HR MAX TEMP:  27;

PRESQUE ISLE   CLOUDY    27  22  81 S10       29.94F WCI  17
6HR MIN TEMP:  25; 6HR MAX TEMP:  29; 6HR PCP: TRACE;

FRENCHVILLE    LGT SNOW  25  22  88 S10G18    29.85F FOG     WCI  15
6HR MIN TEMP:  23; 6HR MAX TEMP:  25; 6HR PCP: TRACE;

CARIBOU        CLOUDY    27  21  78 S6        29.91F
6HR MIN TEMP:  25; 6HR MAX TEMP:  28; 6HR PCP: TRACE;

$$

NHZ002-005-008-009-011-012-014-070700-
NEW HAMPSHIRE

CITY           SKY/WX    TMP DP  RH WIND       PRES   REMARKS
PORTSMOUTH     PTCLDY    28  22  78 SW10      30.15F WCI  19
ROCHESTER      CLEAR     26  21  81 VRB3      30.14F
6HR MIN TEMP:  25; 6HR MAX TEMP:  30;

NASHUA         CLEAR     28  22  78 CALM      30.18F
MANCHESTER     PTCLDY    28  21  75 S7        30.15F
6HR MIN TEMP:  28; 6HR MAX TEMP:  32;

CONCORD        CLEAR     21  18  88 SE3       30.15F
6HR MIN TEMP:  21; 6HR MAX TEMP:  33;

LACONIA        CLEAR     28  18  64 SW12      30.11F WCI  18
PLYMOUTH       FAIR      25  22  91 CALM      30.11F
BERLIN         CLOUDY    34  17  50 SW10      30.01F
6HR MIN TEMP:  33; 6HR MAX TEMP:  34;

WHITEFIELD     CLOUDY    32  18  56 SW3       30.04F
6HR MIN TEMP:  32; 6HR MAX TEMP:  35;

JAFFREY        CLEAR     23  19  85 S6        30.14F
6HR MIN TEMP:  22; 6HR MAX TEMP:  29;

KEENE          CLEAR     21  16  79 CALM      30.17S
LEBANON        CLOUDY    31  21  66 S14       30.10F
6HR MIN TEMP:  27; 6HR MAX TEMP:  37;

MT WASHINGTON  FOG        9   9 100 W69         N/A  VSB 0   WCI -22
6HR MIN TEMP:   8; 6HR MAX TEMP:   9; 6HR PCP: TRACE;

$$

VTZ005-007-008-070700-
VERMONT

CITY           SKY/WX    TMP DP  RH WIND       PRES   REMARKS
ST JOHNSBURY     N/A     32  18  56 MISG      30.05F
MONTPELIER     MOCLDY    32  17  54 SW14G20   30.08F
BURLINGTON     CLOUDY    35  20  54 S10       30.08F
$$

MAZ007-012-024-CTZ003-RIZ002-NYZ038-NYZ072-070700-
SOUTHERN NEW ENGLAND AND NY

CITY           SKY/WX    TMP DP  RH WIND       PRES   REMARKS
BOSTON         PTCLDY    30  24  78 SW13      30.20F WCI  20
WORCESTER      CLEAR     27  18  69 SW12      30.15F WCI  17
NANTUCKET      PTCLDY    37  30  75 W8        30.25F
PROVIDENCE     PTCLDY    29  25  85 SW5       30.23F
HARTFORD       PTCLDY    26  22  84 S3        30.21F
ALBANY         CLOUDY    34  19  54 SW7       30.17F
NEW YORK CITY  PTCLDY    37  22  54 S7        30.24F
$$

ANZ081-ANZ082-ANZ150-NHZ014-MEZ023>029-070700-
COASTAL MARINE OBSERVATIONS

STATION/POSITION TIME  TEMP    WIND        PRES    WAVE
                       AIR SEA DIR/SP/G            HT/PER
                 (UTC) (F)     (DEG/KT/KT) (MB)    (FT/S)
MOUNT DESERT ROC 0600   39     230/ 27/ 28 1019.8F
MATINICUS ROCK   0600          250/ 27/ 29 1019.7F
ISLE OF SHOALS   0600   34     240/ 24/ 26 1020.1F
JEFFREYS LEDGE   0504      44                N/A     5/ 5
CASHES LEDGE BUO 0550   39 43  240/ 19/ 21 1020.9F   6/ 6
GEORGES BANK BUO 0550   40 44              1024.8F   4/10
$$

.............KEY..............
   WCI - WIND CHILL
   TC  - TEMPERATURE IN CELSIUS
   VSB - VISIBILITY IN MILES
   HX  - HEAT INDEX
   FAIR- INDICATES FEW OR NO CLOUDS BELOW 12,000 FT, WITH NO
         SIGNIFICANT WEATHER AND/OR OBSTRUCTIONS TO VISIBILITY.





USA.gov is the U.S. government's official web portal to all federal, state and local government web resources and services.